Regional Weather Roundup
Issued by NWS

Home | Current Version | Previous Version | Text Only | Print | Product List | Glossary Off
Versions: 1 2 3 4 5 6 7 8 9 10 11 12 13 14 15 16 17 18 19 20 21 22 23 24 25 26 27 28 29 30 31 32 33 34 35 36 37 38 39 40 41 42 43 44 45 46 47 48 49 50

000
ASUS45 KCYS 240110
RWRWY

WYOMING REGIONAL WEATHER ROUNDUP
NATIONAL WEATHER SERVICE CHEYENNE WY
600 PM MST THU NOV 23 2017

NOTE:  "FAIR" INDICATES FEW OR NO CLOUDS BELOW 12,000 FEET
WITH NO SIGNIFICANT WEATHER AND/OR OBSTRUCTIONS TO VISIBILITY.

WYZ001-240200-
YELLOWSTONE NATIONAL PARK

CITY           SKY/WX    TMP DP  RH WIND       PRES   REMARKS
LK YELLOWSTONE   N/A     41  34  76 VRB6      30.06F
W YELLOWSTONE  NOT AVBL

$$
WYZ002>013-054>058-071-098>099-240200-
NORTHERN WYOMING

CITY           SKY/WX    TMP DP  RH WIND       PRES   REMARKS
JACKSON          N/A    N/A N/A N/A MISG        N/A
CODY           FAIR      60  30  32 W20G26    29.82F
GREYBULL       FAIR      48  38  68 SE5       29.82F
WORLAND        FAIR      44  39  82 S7        29.85R
SHERIDAN       FAIR      56  33  42 SW8       29.73F
BUFFALO        FAIR      55  28  35 VRB6      29.79F
GILLETTE       FAIR      59  35  40 SW21      29.76F
HULETT         FAIR      54  34  47 S12       29.75F
NEWCASTLE      FAIR      45  32  61 NE5       29.82F

$$
WYZ014>020-022>026-101>103-240200-
CENTRAL WYOMING

CITY           SKY/WX    TMP DP  RH WIND       PRES   REMARKS
BIG PINEY      FAIR      45  34  65 W7        30.14S
PINEDALE       CLOUDY    39  34  81 CALM      30.14S
DUBOIS         FAIR      45  32  61 NW12      30.04S
LANDER         FAIR      60  30  32 N12       29.94F
RIVERTON       FAIR      54  31  41 W7        29.96S
CASPER         FAIR      55  37  50 SW16      29.94F
DOUGLAS        FAIR      60  39  45 W25G32    29.88S

$$
WYZ021-027>030-104>119-240200-
SOUTHERN WYOMING

CITY           SKY/WX    TMP DP  RH WIND       PRES   REMARKS
EVANSTON       FAIR      48  33  56 SW9       30.19F
KEMMERER       FAIR      45  32  61 W12       30.17S
FORT BRIDGER   FAIR      49  35  58 W16       30.19F
ROCK SPRINGS   MOCLDY    52  34  50 W20       30.15R
DIXON          FAIR      50  31  49 CALM      30.20R
RAWLINS        FAIR      48  37  65 SW15      30.11R
SARATOGA       FAIR      50  32  50 SW13G20   30.16F
LARAMIE        FAIR      51  30  44 S24G31    30.09F
CHEYENNE       FAIR      56  30  37 W20       30.00F
TORRINGTON     FAIR      62  37  39 SW7G23    29.87S
PINE BLUFFS    FAIR      57  28  33 W17       29.96F

$$



USA.gov is the U.S. government's official web portal to all federal, state and local government web resources and services.